Flag for U.S.A. Weather past 2 weeks in Atlanta, Georgia, U.S.A.

Now
36 °F

Partly sunny.


Feels Like: 28 °F
Forecast: 34 / 51 °F
Wind: 12 mph from North

Location: Fulton County Airport-Brown Field

Current Time: Mar 28, 2015 at 9:18:04 AM

Latest Report: Mar 28, 2015 at 8:53 AM


Visibility: 10 mi

Pressure: 30.14 "Hg

Humidity: 54%

Dew point: 21 °F

Location of AtlantaLocation

Historic Weather in Atlanta — Graph

°F

Atlanta temperature yesterday

Maximum temperature yesterday: 58 °F (at 3:53 PM)
Minimum temperature yesterday: 43 °F (at 11:53 PM)
Average temperature yesterday: 50 °F

Past Weeks' High & Low Weather Summary

 TemperatureHumidityPressure
High81 °F (Mar 16, 4:53 PM)97% (Mar 14, 9:53 AM)30.38 "Hg (Mar 14, 9:53 AM)
Low37 °F (Mar 28, 6:53 AM)12% (Mar 16, 5:53 PM)29.75 "Hg (Mar 27, 4:53 AM)
Average59 °F69%30.06 "Hg
* Reported Mar 13 7:53 AM — Mar 28 7:53 AM, Atlanta, Weather by CustomWeather, © 2015

Note: Actual official high and low records may vary slightly from our data, if they occured in-between our weather recording intervals... More about our weather records

Advertising

Atlanta weather history for previous 24 hours

 ConditionsComfort  
Time TempWeatherWind HumidityBarometerVisibility
7:53 AM
Sat, Mar 28
37 °FMostly cloudy.8 mph62%30.10 "Hg10 mi
6:53 AM37 °FPartly cloudy.10 mph62%30.08 "Hg10 mi
5:53 AM38 °FMostly cloudy.8 mph68%30.06 "Hg10 mi
4:53 AM38 °FPassing clouds.7 mph68%30.04 "Hg10 mi
3:53 AM39 °FPassing clouds.8 mph67%30.02 "Hg10 mi
2:53 AM40 °FClear.6 mph68%30.03 "Hg10 mi
1:53 AM41 °FPassing clouds.8 mph65%30.03 "Hg10 mi
12:53 AM43 °FPassing clouds.14 mph62%30.02 "Hg10 mi
11:53 PM
Fri, Mar 27
43 °FPassing clouds.7 mph58%30.02 "Hg10 mi
10:53 PM44 °FClear.8 mph55%30.00 "Hg10 mi
9:53 PM46 °FPassing clouds.14 mph51%29.97 "Hg10 mi
8:53 PM48 °FOvercast.16 mph48%29.93 "Hg10 mi
7:53 PM51 °FCloudy.14 mph38%29.89 "Hg10 mi
6:53 PM53 °FOvercast.13 mph35%29.86 "Hg10 mi
5:53 PM56 °FMore clouds than sun.13 mph33%29.83 "Hg10 mi
4:53 PM58 °FPassing clouds.10 mph31%29.81 "Hg10 mi
3:53 PM58 °FSunny.24 mph33%29.83 "Hg10 mi
2:53 PM56 °FPassing clouds.12 mph44%29.85 "Hg10 mi
1:53 PM54 °FPartly sunny.14 mph51%29.86 "Hg10 mi
1:01 PM51 °FBroken clouds.15 mph56%29.86 "Hg10 mi
11:53 AM48 °FOvercast.13 mph66%29.87 "Hg10 mi
10:53 AM47 °FOvercast.N/A71%29.85 "Hg10 mi
10:00 AM46 °FOvercast.20 mph73%29.85 "Hg10 mi
Weather by CustomWeather, © 2015

See weather overviewHow to use our weather pages